Lapse_Rate
2.5 2.6 2.6 2.8 2.9 3.1 3.7 4.3 5.4 6.1 7.2 8.2 7.5 7.5 7.5 7.1 6.9 9.8 8.8 9.6 9.6 9.7 9.3 9.7 9.4 9.2 9.1 8.3 8.5 8.1 6.5 6.5 6.5 6.5 6.5 7.1 6.5 7.7 8.0 7.3 7.8 8.2 8.1 8.3 7.9
2.3 2.2 2.3 2.6 3.0 3.5 3.9 4.3 5.3 6.0 6.3 6.7 6.8 6.8 7.0 6.3 8.6 8.9 9.7 9.7 9.7 9.7 9.4 8.9 8.4 8.7 8.0 7.7 7.6 6.6 6.5 6.5 6.5 6.5 6.5 6.8 6.8 7.1 6.9 6.9 7.2 7.7 8.4 8.6 8.5
2.4 2.2 2.3 2.7 3.2 3.8 3.9 4.7 5.8 6.1 6.4 6.6 6.7 6.9 6.5 6.5 8.4 8.6 9.5 9.5 8.7 8.8 9.3 9.3 9.0 8.4 7.2 7.6 7.3 6.8 6.5 6.5 6.6 7.0 7.0 6.6 6.8 7.6 6.7 6.5 7.3 7.0 7.7 8.3 8.1
2.4 2.2 2.1 2.4 3.2 3.7 4.0 4.8 5.7 6.3 6.6 6.6 6.7 6.6 6.1 8.1 6.5 9.3 8.2 8.2 7.8 8.1 9.4 8.8 8.4 7.4 6.5 6.5 7.2 6.5 6.8 6.9 6.9 7.3 7.2 6.5 7.0 6.9 7.1 7.0 7.8 7.9 8.2 8.3 8.1
2.1 2.0 1.9 2.3 3.0 3.5 4.2 4.8 5.7 6.1 6.6 6.7 6.7 6.1 8.1 8.1 8.1 9.1 7.6 8.0 8.5 8.5 8.8 8.3 7.7 7.4 6.5 6.6 6.9 6.5 6.5 7.2 7.4 7.3 7.3 7.3 6.6 6.8 6.9 7.8 7.0 8.2 8.2 8.2 8.2
2.0 1.7 1.7 1.9 3.0 3.7 4.1 4.8 5.7 6.0 6.7 6.8 6.4 5.8 8.8 6.9 9.5 8.9 7.9 8.3 9.5 8.6 8.7 8.6 7.9 8.1 7.2 6.7 6.5 6.9 6.9 6.9 7.2 7.1 7.2 6.6 6.6 6.9 7.2 7.8 7.2 6.4 8.0 8.3 8.3
1.9 1.7 1.4 1.8 2.9 3.7 4.0 4.7 5.5 6.0 6.2 6.6 6.1 7.0 8.3 8.0 9.4 8.6 8.2 9.4 8.4 8.6 8.4 8.8 8.7 7.9 7.8 6.5 7.4 6.8 6.5 6.5 6.5 6.8 6.6 7.0 6.5 6.5 7.4 7.3 7.4 7.4 7.7 8.2 8.4
1.9 1.7 1.5 1.9 2.8 3.7 4.1 4.6 5.2 6.2 6.3 6.8 5.7 7.3 7.6 8.8 9.6 9.3 8.8 7.9 9.0 8.3 8.1 8.6 9.0 8.1 7.5 7.8 6.9 6.5 6.5 6.5 6.5 6.5 6.6 6.7 6.5 6.5 7.4 7.2 7.0 7.3 7.4 8.0 8.2
1.9 1.6 1.8 2.2 3.1 3.6 4.2 4.8 5.0 5.6 6.8 6.5 8.3 7.7 7.3 9.4 8.3 8.3 9.7 8.6 8.1 9.0 8.7 9.1 8.6 7.5 7.3 6.5 6.5 6.5 6.5 6.5 6.5 6.5 6.5 6.5 6.5 6.5 7.3 7.2 7.0 7.2 7.5 7.7 7.9
1.6 1.6 2.0 2.6 3.4 3.5 3.8 4.3 4.5 6.4 6.8 7.3 8.4 7.4 8.3 8.0 8.5 8.3 9.5 8.4 8.4 8.4 7.9 7.8 7.4 6.5 6.5 6.5 6.5 6.5 6.5 6.5 6.5 6.5 6.5 6.5 6.5 6.5 6.8 7.0 6.9 7.1 7.1 7.7 7.6
1.6 1.7 2.4 2.8 3.6 3.6 3.9 7.6 8.2 8.0 7.4 7.6 7.6 7.6 8.2 8.9 8.8 8.9 9.0 8.6 8.5 7.7 6.5 7.0 6.5 6.5 6.5 6.5 6.5 6.5 6.5 6.5 6.5 6.5 6.5 6.5 6.5 6.5 6.6 6.8 6.7 7.1 7.2 6.7 7.6
1.6 1.9 2.5 2.9 3.2 3.7 4.6 4.3 5.0 5.1 7.0 6.8 7.0 7.4 8.8 8.9 7.5 8.5 9.2 7.6 7.1 6.5 6.6 6.5 6.5 6.5 6.5 6.5 6.5 6.5 6.5 6.5 6.5 6.5 6.5 6.5 6.5 6.5 6.5 6.5 6.9 7.0 6.9 7.1 7.6
1.7 2.1 2.5 2.7 3.1 4.6 5.1 4.2 4.5 4.8 7.0 7.4 7.8 7.9 8.1 8.5 7.4 7.7 8.5 7.8 6.6 6.5 6.5 6.5 6.5 6.5 6.5 6.5 6.5 6.5 6.5 6.5 6.5 6.5 6.5 6.5 6.5 6.5 6.5 6.7 7.0 7.2 7.4 7.2 7.5
1.7 2.3 2.3 2.8 5.2 4.4 5.4 4.4 4.7 5.7 6.5 6.5 6.9 7.7 8.3 8.2 6.9 8.7 8.8 7.8 6.6 6.5 6.5 6.5 6.6 6.5 6.5 6.5 6.5 6.5 6.5 6.5 6.5 6.5 6.5 6.5 6.5 6.5 6.5 6.5 6.5 6.9 7.2 7.5 7.0
1.8 2.5 1.7 2.3 4.9 5.5 4.6 4.1 5.4 6.5 6.5 6.5 6.9 8.8 8.4 7.3 7.5 7.5 8.9 7.8 6.5 6.5 6.5 6.5 6.5 6.5 6.5 6.5 6.5 6.5 6.5 6.5 6.5 6.5 6.5 6.5 6.5 6.5 6.5 6.5 6.5 6.5 6.9 7.0 6.4
1.7 2.6 2.6 2.9 3.8 3.2 3.2 4.9 6.8 6.5 6.5 6.5 6.9 6.6 6.6 7.1 7.1 7.7 7.7 8.2 7.7 6.5 6.5 6.5 7.1 6.5 6.5 6.5 6.5 6.5 6.5 6.5 6.5 6.5 6.5 6.5 6.5 6.5 6.5 6.5 6.5 6.6 7.0 6.7 6.7
1.5 1.7 3.0 2.1 4.4 2.2 3.4 6.8 6.5 6.5 6.5 6.5 6.5 6.5 6.5 6.5 6.5 6.6 6.5 6.5 6.5 6.5 6.5 6.5 6.5 6.5 6.7 6.5 6.5 6.5 6.5 6.5 6.5 6.5 6.5 6.5 6.5 6.5 6.5 6.5 6.5 6.5 6.9 6.9 6.7
0.9 2.2 2.3 1.6 1.2 1.7 5.0 6.6 6.5 6.5 6.5 6.5 6.5 6.5 6.5 6.5 6.5 6.5 6.5 6.5 6.5 6.5 6.5 6.5 6.5 6.5 6.5 6.5 6.5 6.5 6.5 6.5 6.5 6.5 6.5 6.5 6.5 6.5 6.5 6.8 7.1 7.3 7.4 7.4 7.5
0.9 3.1 4.2 2.3 0.9 2.5 6.9 6.5 6.5 6.5 6.5 6.5 6.5 6.5 6.5 6.5 6.5 6.5 6.5 6.5 6.5 6.5 6.5 6.5 6.5 6.5 6.5 6.5 6.5 6.5 6.5 6.5 6.5 6.5 6.5 6.5 6.5 6.5 6.5 6.5 6.7 7.0 7.2 6.7 7.3
3.4 4.5 4.5 0.9 0.6 4.3 6.4 6.5 6.5 6.7 6.7 6.5 6.5 6.5 6.5 6.5 6.5 6.5 6.5 6.5 6.5 6.7 6.8 6.5 6.5 6.5 6.5 6.6 6.6 6.5 6.5 6.5 6.5 6.5 6.5 6.5 6.5 6.5 6.5 6.5 6.5 6.5 6.9 7.3 6.9
3.1 6.4 4.5 0.2 3.1 5.0 6.5 6.5 6.5 7.2 7.2 6.5 6.5 6.5 6.5 6.5 6.5 6.5 6.5 6.5 6.5 6.5 6.8 6.5 6.5 6.5 6.5 6.5 6.5 6.5 6.5 6.5 6.5 6.5 6.5 6.5 6.5 6.5 6.5 6.5 6.5 6.6 7.1 7.3 7.4
3.1 6.4 3.1 2.3 5.8 6.9 6.5 6.5 7.1 6.8 7.3 6.7 6.7 6.5 6.5 6.5 6.5 6.5 6.5 6.5 7.2 7.0 6.5 6.5 6.5 6.5 6.5 6.5 6.5 6.5 6.5 6.5 6.5 6.5 6.5 6.5 6.5 6.5 6.5 6.5 6.8 6.9 7.2 7.5 5.8
3.5 4.5 3.6 2.6 6.5 6.5 6.7 6.5 6.9 6.6 6.6 6.5 6.5 6.6 6.6 6.5 6.5 6.5 6.5 7.0 7.3 6.6 6.5 6.5 6.5 6.5 6.5 6.5 6.5 6.5 6.5 6.5 6.5 6.5 6.5 6.5 6.5 6.5 6.6 6.6 6.9 7.1 7.4 7.5 7.0
3.1 6.5 4.4 3.0 5.2 6.6 6.5 6.5 6.5 7.2 6.8 7.0 6.6 6.8 6.5 6.5 6.5 6.5 6.5 6.7 7.3 7.0 7.2 6.9 6.5 6.5 6.5 6.5 6.5 6.5 6.5 6.5 6.5 6.5 6.5 6.5 6.5 6.5 6.5 6.5 6.8 7.1 7.4 7.5 7.1
2.2 6.5 6.6 6.5 6.7 6.8 6.7 6.5 6.5 6.5 7.0 7.1 6.5 6.5 6.5 6.5 6.5 6.5 6.5 6.5 6.8 7.1 7.0 6.5 6.5 6.5 6.5 6.5 6.5 6.5 6.5 6.5 6.5 6.5 6.5 6.5 6.5 6.5 6.5 6.5 6.8 7.0 7.3 7.4 7.0
3.2 5.6 5.9 7.1 7.2 6.6 6.6 6.5 6.5 6.5 6.6 6.5 6.5 6.5 6.5 6.5 6.5 6.5 6.5 6.5 6.5 6.7 6.5 6.6 6.5 6.5 6.5 6.5 6.5 6.5 6.5 6.5 6.5 6.5 6.5 6.5 6.5 6.5 7.1 7.3 7.1 6.9 7.2 7.2 7.2
1.3 3.0 5.6 7.0 6.8 6.5 6.5 6.5 6.5 6.8 7.0 7.1 6.8 6.5 6.5 6.6 7.2 7.4 7.6 7.4 7.0 6.5 6.5 6.5 6.5 6.5 6.5 6.5 6.5 6.5 6.5 6.5 6.5 6.5 6.5 6.5 6.5 6.7 6.5 6.8 7.0 7.0 7.0 7.0 6.8
Wind_Speed
15 17 17 18 19 18 19 19 19 18 17 16 15 13 13 13 10 6 13 13 11 19 16 13 9 11 8 11 12 10 4 7 17 21 19 16 17 21 12 14 20 18 14 5 8
15 16 17 19 20 20 19 19 18 18 17 15 12 10 11 9 2 12 12 17 18 19 12 13 13 14 6 8 5 9 9 8 15 8 3 14 14 17 16 14 23 16 9 4 10
16 18 19 19 20 19 19 20 19 19 15 11 9 10 9 5 1 10 16 19 20 15 7 7 10 10 8 7 10 8 17 18 17 13 8 4 14 19 17 21 24 19 11 11 12
16 18 19 19 20 19 19 20 21 15 12 8 8 9 7 3 3 11 19 22 18 9 7 8 10 10 7 7 5 7 16 17 17 17 19 11 4 19 17 19 3 2 7 10 12
16 18 19 20 20 19 20 21 16 10 9 7 7 8 3 8 9 15 20 18 11 8 7 8 8 9 8 10 9 14 14 17 17 14 19 15 16 20 15 14 7 10 8 10 12
17 18 20 20 21 20 21 20 12 7 9 4 6 7 7 14 14 18 14 15 12 8 7 5 6 9 9 11 9 8 16 18 13 16 13 13 15 16 14 9 5 5 12 14 15
17 19 19 21 22 21 21 18 9 6 6 3 4 3 7 11 15 18 17 21 9 9 7 3 5 7 12 11 4 9 10 7 9 14 12 7 15 19 16 5 9 12 14 17 19
17 19 19 20 21 22 22 12 8 7 4 2 4 2 3 7 20 15 16 19 11 4 5 4 4 7 6 10 6 5 3 4 4 5 7 8 9 5 9 10 9 9 12 16 19
17 18 17 19 18 23 20 6 8 5 4 4 3 4 3 13 24 16 16 16 13 5 2 2 3 3 6 8 5 1 5 4 2 7 4 10 4 3 9 9 7 4 11 11 16
16 17 15 17 15 24 15 2 7 6 4 2 6 3 8 15 14 9 21 13 5 9 0 4 3 5 9 9 5 9 6 7 6 9 9 8 9 1 4 8 5 1 7 9 12
16 16 14 16 10 20 7 1 2 2 10 6 2 3 12 18 4 19 23 12 6 5 8 4 5 10 14 8 6 7 7 8 3 5 9 9 7 5 3 4 3 8 11 8 12
17 15 15 14 6 17 6 5 4 2 5 4 2 4 12 12 9 20 24 9 7 11 12 1 8 13 13 6 10 5 7 6 5 3 6 2 5 9 10 4 3 6 3 6 8
16 14 15 10 1 6 9 5 4 4 1 5 3 7 11 9 7 18 20 12 7 10 9 4 8 13 8 7 12 6 7 8 7 11 3 7 4 7 6 6 3 4 7 7 5
14 14 13 4 2 2 3 8 1 2 1 12 9 7 13 10 4 12 17 5 5 7 8 2 9 10 7 6 12 3 10 9 8 7 2 6 4 5 6 6 4 4 7 8 1
13 13 8 13 2 3 6 6 3 2 2 13 6 7 13 10 9 15 16 5 7 8 6 7 10 11 11 9 9 5 12 8 4 3 6 3 1 5 5 5 4 4 4 7 1
10 11 4 4 2 3 6 1 2 1 3 5 6 12 11 11 8 15 13 12 1 4 5 7 5 3 8 12 5 9 7 4 1 2 2 4 5 7 7 10 11 10 2 4 4
6 9 6 3 3 8 2 2 1 4 6 9 7 12 9 13 8 13 10 15 12 8 10 12 2 3 10 9 3 14 6 2 2 1 2 3 0 5 10 12 11 13 12 7 3
1 3 4 8 6 1 2 0 6 2 4 6 8 12 8 15 8 15 9 9 13 11 3 8 3 11 13 6 7 7 6 3 2 1 4 1 3 4 13 12 14 13 8 8 8
4 1 2 11 4 1 1 6 2 1 5 8 8 4 5 9 9 10 9 9 8 13 6 8 4 10 8 9 5 5 5 5 3 2 3 2 5 4 19 20 21 18 15 13 14
1 1 3 12 1 1 5 4 1 2 4 3 6 5 6 10 10 11 8 3 8 12 2 5 6 4 8 4 3 4 8 2 2 3 3 5 5 7 19 19 19 19 18 16 14
1 1 3 6 1 6 4 3 2 1 3 4 3 4 3 5 6 6 6 3 9 12 2 4 2 8 3 8 9 7 5 5 2 3 4 2 4 8 12 13 16 16 17 17 15
1 1 5 4 4 3 3 3 1 2 2 1 0 2 2 5 4 4 4 3 7 11 7 5 3 5 3 9 5 5 8 8 5 5 2 3 4 8 12 12 15 17 17 17 17
2 1 2 3 3 3 3 3 2 2 3 3 2 3 2 3 3 4 5 4 9 7 7 7 2 5 0 3 6 6 12 10 7 4 6 4 4 11 13 14 18 18 18 17 18
2 1 4 4 2 4 4 2 2 1 1 2 1 1 5 1 1 4 6 4 11 5 12 5 2 2 5 7 9 6 12 10 5 3 8 7 5 17 20 18 19 19 18 16 16
3 2 2 2 3 5 2 2 2 2 1 0 2 3 4 3 3 2 4 9 4 7 6 4 2 3 11 5 8 8 11 12 7 8 6 7 5 14 18 17 15 13 17 17 18
3 4 3 3 4 3 2 2 3 2 2 2 1 4 3 4 2 4 4 3 3 7 4 6 3 6 3 4 6 9 16 9 9 11 7 9 3 17 16 13 14 14 17 18 17
2 2 3 2 2 1 2 4 3 1 3 3 2 4 5 6 5 10 11 13 12 7 4 5 6 6 2 5 4 3 10 10 5 11 8 6 10 17 18 16 13 16 16 16 17
Wind_Direction
7 3 359 355 352 351 347 346 343 341 340 340 342 345 347 341 328 45 30 8 354 347 332 330 325 344 299 265 250 266 269 243 247 256 251 250 229 240 214 253 265 246 254 16 329
5 2 358 354 351 351 348 346 343 342 341 343 341 338 341 340 335 40 357 351 347 339 329 336 334 332 307 263 251 230 237 251 249 205 289 309 291 271 217 221 250 223 219 302 334
2 1 357 353 350 350 349 348 346 344 347 349 346 338 339 311 260 8 346 343 338 336 319 311 310 324 301 279 243 254 245 262 262 278 198 239 286 274 263 225 230 238 259 309 318
1 358 355 352 349 351 351 350 342 349 357 1 348 345 327 227 32 347 338 338 334 325 308 322 324 329 301 296 308 299 280 280 275 266 272 268 284 279 276 249 260 315 329 314 306
360 356 353 351 347 351 352 351 352 7 12 1 356 350 312 58 11 341 335 338 333 327 326 324 324 328 311 313 299 264 280 260 261 260 259 265 260 256 267 273 88 3 348 335 318
358 355 351 348 345 350 351 351 359 10 9 3 2 332 18 47 350 350 346 336 333 316 315 306 327 316 293 295 289 306 284 275 236 244 253 255 259 239 252 217 243 328 329 336 327
354 355 350 347 343 346 348 349 356 352 340 6 359 344 33 26 349 360 347 337 315 304 303 340 321 302 318 300 264 266 282 242 228 233 236 245 247 239 237 189 275 261 291 314 323
355 352 350 347 340 343 346 356 10 354 318 335 0 309 49 20 354 355 349 338 341 287 269 312 300 291 280 307 278 265 242 274 106 209 221 218 258 238 172 180 220 248 293 289 316
353 351 350 348 341 340 345 12 11 4 45 341 342 329 35 338 355 348 349 328 314 312 270 327 314 322 312 324 252 1 329 339 303 60 270 212 271 332 173 174 169 244 286 309 308
351 349 350 352 342 339 343 359 24 46 353 245 16 240 3 342 334 325 349 335 314 334 197 22 359 342 11 1 9 328 340 321 11 342 329 217 255 319 158 162 148 269 284 308 323
350 348 349 352 351 349 355 293 286 81 34 53 19 39 333 335 333 359 350 332 336 358 3 29 14 10 344 333 325 293 306 293 333 281 305 229 237 173 144 158 123 336 294 289 319
349 347 349 355 34 5 30 64 46 0 84 42 348 321 359 342 342 3 354 3 348 10 354 177 34 351 328 306 316 320 305 7 276 287 305 19 231 209 187 187 161 252 309 297 320
348 349 349 355 179 43 61 44 320 178 279 37 4 338 356 344 8 1 2 332 349 352 0 11 356 330 329 18 348 25 1 348 330 311 229 305 191 185 180 155 178 350 321 317 310
350 352 355 20 181 4 56 344 302 210 241 4 356 22 349 343 14 354 6 345 353 331 338 331 351 354 351 7 354 333 1 331 314 305 326 349 110 92 166 170 186 286 339 326 170
348 360 29 41 56 41 336 333 141 240 295 348 3 324 355 39 336 354 351 341 5 327 309 17 352 357 355 350 333 336 330 306 299 328 310 45 305 8 192 203 211 272 340 321 155
350 10 8 50 71 35 325 189 223 267 10 357 346 350 0 15 12 340 0 11 26 326 339 336 304 330 345 320 2 337 317 106 62 324 214 357 321 48 17 345 330 339 272 291 171
339 55 47 32 352 330 305 230 333 48 356 348 335 340 347 358 6 1 12 36 32 358 11 325 19 355 357 341 338 3 332 125 133 258 54 343 2 34 350 6 353 316 292 216 194
61 158 55 47 338 206 222 293 55 6 345 344 326 333 18 10 16 352 359 20 30 7 327 354 32 7 351 356 310 344 341 17 73 125 111 155 67 110 34 20 11 6 325 226 150
165 68 57 356 14 217 253 51 55 343 330 321 314 341 10 19 351 351 13 5 12 14 8 350 313 336 353 334 308 351 4 338 284 205 229 41 83 144 8 9 6 4 2 0 359
156 133 39 342 43 232 67 101 92 336 318 297 355 11 337 350 354 358 355 11 345 1 331 20 295 350 320 300 69 335 329 306 18 342 98 88 71 3 351 351 352 354 356 351 348
80 156 21 350 267 54 78 90 140 70 333 340 348 320 344 344 334 328 323 347 352 339 337 348 298 315 284 22 1 2 23 350 280 343 345 121 84 5 349 358 347 353 353 349 341
116 325 2 313 41 42 84 115 86 10 0 355 39 355 341 336 308 300 308 293 351 344 337 341 315 303 342 325 303 14 19 14 346 1 13 327 88 21 9 2 359 1 354 353 351
75 1 28 315 94 96 123 100 71 41 25 6 17 8 30 318 313 274 318 332 335 345 351 344 30 328 33 183 59 13 350 332 289 253 21 318 90 18 4 9 9 3 356 358 1
108 53 22 47 33 112 135 109 129 101 136 350 338 17 355 312 245 308 315 316 338 354 346 324 310 334 324 321 317 329 334 325 319 325 327 22 54 4 359 2 3 358 354 357 7
25 82 29 44 49 94 85 124 130 180 151 298 185 45 358 307 297 289 314 317 321 3 9 16 327 308 303 286 72 34 5 21 28 5 24 13 52 6 350 349 3 350 354 360 6
124 141 84 80 102 113 353 158 176 167 210 168 173 345 294 237 239 295 332 291 318 335 23 346 328 336 283 187 103 56 18 10 25 8 13 354 28 357 342 347 353 2 357 359 358
128 84 117 91 124 172 192 160 170 125 219 272 331 329 282 270 294 288 277 273 273 299 322 348 337 342 307 329 282 191 6 1 66 34 346 13 336 335 338 342 343 358 358 352 348